Location: ??????
(38.0677°N, 22.9870°E)
Time: 11:06:18
(UTC+00:00)

Cosmos 2333 Rocket - Pass Details

Date: 23 May 2024
Orbit: 838 x 863 km, 70.8° (Epoch: 23 June)

Event Time Altitude Azimuth Distance (km) Brightness Sun altitude
Rises 00:50:13 0° 342° (NNW) 3,424 5.9 -22.1°
Reaches altitude 10° 00:52:45 10° 347° (NNW) 2,488 5.1 -21.8°
Maximum altitude 00:58:20 52° 64° (ENE) 1,061 3.0 -21.1°
Drops below altitude 10° 01:03:54 10° 140° (SE) 2,489 4.5 -20.4°
Sets 01:06:25 0° 145° (SE) 3,424 5.2 -20.1°
